Regional Weather Roundup
Issued by NWS

Home | Current Version | Previous Version | Text Only | Print | Product List | Glossary On
Versions: 1 2 3 4 5 6 7 8 9 10 11 12 13 14 15 16 17 18 19 20 21 22 23 24 25 26 27 28 29 30 31 32 33 34 35 36 37 38 39 40 41 42 43 44 45 46 47 48 49 50
000
ASUS42 KTBW 301515
RWRFL
FLORIDA REGIONAL WEATHER ROUNDUP
NATIONAL WEATHER SERVICE TAMPA BAY RUSKIN FL
1100 AM EDT SUN AUG 30 2015

NOTE: "FAIR" INDICATES FEW OR NO CLOUDS BELOW 12,000 FEET WITH NO
SIGNIFICANT WEATHER AND/OR OBSTRUCTIONS TO VISIBILITY.


FLZ001>010-012>015-112-114-115-301600-
PANHANDLE FLORIDA

CITY           SKY/WX    TMP DP  RH WIND       PRES   REMARKS
PENSACOLA      SUNNY     82  71  69 S3        30.06R
PENSACOLA NAS  SUNNY     83  73  72 S5        30.06R
MILTON NAS     MOSUNNY   83  70  64 VRB5      30.07
CRESTVIEW      SUNNY     82  72  71 W5        30.09R
DUKE FIELD     FAIR      82  69  63 N8        30.06R
VALPARAISO     MOSUNNY   85  68  57 N3        30.06R
MARY ESTHER    MOSUNNY   82  68  61 VRB1      30.05
TRI COUNTY     FAIR      80  73  79 E3        30.08R
PANAMA CITY    FAIR      82  71  69 VRB3      30.06R
TYNDALL AFB    MOSUNNY   78  73  83 NE7       30.06S
APALACHICOLA   SUNNY     82  75  79 NE7       30.05R

STATION/POSITION SKY/WX   TEMP    WIND        PRES    WAVE   SWELL
                          AIR SEA DIR/SP/G            HT/PER HT/PER
                          (F)     (DEG/KT/KT) (MB)    (FT/S) (FT/S)
30.1N   87.6W              81 85   40/ 10/ 12 1017.0R   1/ 4
29.2N   88.2W              83 86  280/  2/  4 1017.8R   1/ 5   2/ 5
28.8N   86.0W              83 86   50/  6/  8 1017.5R   1/ 6
PANAMA CITY BEAC NOT AVBL
CAPE SAN BLAS    NOT AVBL
TOWER C                    82     110/  9/  9 1017.1S
28.5N   84.5W              84 85   90/  6/  8 1017.0R   2/ 5   2/ 5

$$
FLZ011-016>038-118-127-128-134-139-239-301600-
NORTH FLORIDA

CITY           SKY/WX    TMP DP  RH WIND       PRES   REMARKS
MARIANNA       MOSUNNY   79  72  79 CALM      30.07R
TALLAHASSEE    MOSUNNY   81  73  76 CALM      30.06S
PERRY          SUNNY    N/A N/A N/A CALM      30.05F
CROSS CITY       N/A     84  74  71 CALM      30.04S
LAKE CITY      FAIR      81  75  83 SE5       30.06S
GAINESVILLE    MOSUNNY   83  75  77 SE10      30.05R
MAYPORT NAS    LGT RAIN  76  73  91 SE16      30.07R FOG
JACKSONVILLE   PTSUNNY   84  76  76 CALM      30.05S
JAX NAS        PTSUNNY   85  76  74 SE3       30.06R
JAX CRAIG      CLOUDY    80  73  79 SE15      30.06R
JAX CECIL      PTSUNNY   82  77  83 SE5       30.06R
FERNANDINA BEA CLOUDY    81  75  83 SE13G22   30.06R
ST AUGUSTINE   CLOUDY    79  75  89 E20       30.06S

STATION/POSITION SKY/WX   TEMP    WIND        PRES    WAVE   SWELL
                          AIR SEA DIR/SP/G            HT/PER HT/PER
                          (F)     (DEG/KT/KT) (MB)    (FT/S) (FT/S)
SHELL POINT                76      40/  2/  4   N/A
KEATON BEACH               79     270/  4/  4 1017.7R
CEDAR KEY                  79     100/  5/  6 1017.4R
FERNANDINA       NOT AVBL
30.7N   81.3W                 86                N/A     4/11   2/11
MAYPORT          NOT AVBL
31.4N   80.9W              82 84   90/ 10/ 12 1018.7    4/11   5/11
ST AUGUSTINE               78 83  110/ 17/ 20 1018.6R

$$
FLZ040-043>046-052-053-057-058-063-144-301600-
INTERIOR CENTRAL FLORIDA

CITY           SKY/WX    TMP DP  RH WIND       PRES   REMARKS
OCALA          PTSUNNY   82  75  78 CALM      30.04R
THE VILLAGES     N/A     82  77  83 VRB5      29.95R
LEESBURG       PTSUNNY   82  76  81 SE10      30.04R
SANFORD        CLOUDY    82  74  76 SE12      30.03R
ORLANDO EXEC   CLOUDY    83  77  82 S9        30.03R
ORLANDO INTL   CLOUDY    83  76  79 S7        30.04R
WINTER HAVEN   CLOUDY    81  76  84 SE8       30.05R
LAKELAND       CLOUDY    79  75  89 E5        30.05R
BARTOW         PTSUNNY   79  79 100 CALM      30.05R
OKEECHOBEE       N/A     79  75  89 CALM      30.03S

$$
FLZ041-047-054-059-064-141-147-301600-
EAST CENTRAL FLORIDA

CITY           SKY/WX    TMP DP  RH WIND       PRES   REMARKS
ORMOND BEACH   MOSUNNY   77  75  94 CALM      30.04S
DAYTONA BEACH  LGT RAIN  79  75  87 S5        30.04S
DELAND           N/A     81  75  83 SE8       30.04F
NEW SMYRNA BEA CLOUDY    79  75  89 S9        30.04S
TITUSVILLE     CLOUDY    81  79  94 SE12      30.04R
CAPE CANAVERAL CLOUDY    81  78  89 S12G21    30.01R
PATRICK AFB    TSTM      80  77  90 S10       30.02R
MELBOURNE      CLOUDY    82  75  79 SE14G22   30.03R
VERO BEACH     TSTM      79  75  87 W6        30.03F
FT PIERCE      LGT RAIN  83  79  88 SE12      30.02R FOG
STUART         SHOWER   N/A N/A N/A SE7       30.02R

STATION/POSITION SKY/WX   TEMP    WIND        PRES    WAVE   SWELL
                          AIR SEA DIR/SP/G            HT/PER HT/PER
                          (F)     (DEG/KT/KT) (MB)    (FT/S) (FT/S)
28.5N   80.2W              84 84  140/ 16/ 17   N/A
28.9N   78.5W              85 85  130/ 17/ 21 1018.2R
TRIDENT PIER     NOT AVBL
28.4N   80.5W                 85                N/A     5/11   2/11
27.5N   80.2W                 84                N/A     6/ 7   2/11

$$
FLZ050-056-061-142-242-148-248-149-249-151-251-155-255-
160-260-301600-
WEST CENTRAL FLORIDA

CITY           SKY/WX    TMP DP  RH WIND       PRES   REMARKS
CRYSTAL RIVER  FAIR      84  77  79 E8        30.03S
INVERNESS      PTSUNNY   82  77  83 SE5       30.05R
BROOKSVILLE    CLOUDY    82  76  81 SE6       30.05R
CLEARWATER     MOSUNNY   82  76  81 NE6       30.02S
TAMPA INTL     PTSUNNY   83  75  77 E8        30.03R
TAMPA EXEC     MOSUNNY   82  77  83 E6        30.04R
PLANT CITY     PTSUNNY   81  79  94 E3        30.06R
MACDILL AFB    MOSUNNY   84  80  87 E9        30.02R HX  96
PETER O KNIGHT MOSUNNY   84  79  84 E7        30.03R HX  96
ST PETERSBURG  MOSUNNY   82  76  81 E8        30.01R
SARASOTA       PTSUNNY   83  76  79 E9        30.01R
VENICE         FAIR      81  75  83 E8        30.03R

STATION/POSITION SKY/WX   TEMP    WIND        PRES    WAVE   SWELL
                          AIR SEA DIR/SP/G            HT/PER HT/PER
                          (F)     (DEG/KT/KT) (MB)    (FT/S) (FT/S)
CEDAR KEY                  79     100/  5/  6 1017.4R
28.5N   84.5W              84 85   90/  6/  8 1017.0R   2/ 5   2/ 5
27.3N   84.2W                 86                N/A     2/ 5
CLEARWATER BEACH NOT AVBL
MIDDLE TAMPA BAY NOT AVBL
VENICE                     80 86   80/  7/  8 1016.0R

$$
FLZ066-069-070-075>078-162-262-165-265-301600-
SOUTHWEST FLORIDA AND KEYS

CITY           SKY/WX    TMP DP  RH WIND       PRES   REMARKS
PUNTA GORDA    CLOUDY    81  76  84 E7        30.03R
FT MYERS       CLOUDY    80  76  87 E6        30.01R
SOUTHWEST INTL CLOUDY    81  75  82 NE7       30.01R
NAPLES         CLOUDY    81  76  84 E7        29.99R
MARATHON       TSTM     N/A N/A N/A SE17G33   30.00R VSB 1/2
KEY WEST NAS   LGT RAIN  83  77  82 S15       29.99R
KEY WEST INTL  CLOUDY    84  78  82 S16G22    29.98R HX  95

STATION/POSITION SKY/WX   TEMP    WIND        PRES    WAVE   SWELL
                          AIR SEA DIR/SP/G            HT/PER HT/PER
                          (F)     (DEG/KT/KT) (MB)    (FT/S) (FT/S)
VENICE                     80 86   80/  7/  8 1016.0R
NAPLES           NOT AVBL
26.0N   85.6W              85 86   40/ 12/ 16 1015.6R   3/ 5   2/ 8
DRY TORTUGAS                                    N/A
NW FL BAY                  85     140/ 20/ 23 1014.7
SAND KEY                   83     190/ 20     1014.7R
LONG KEY                   83 86  200/ 21/ 26 1016.2R
MOLASSES REEF              84 87  170/ 25/ 28 1015.4R

$$
FLZ067-068-071>074-168-172>174-301600-
SOUTHEAST FLORIDA

CITY           SKY/WX    TMP DP  RH WIND       PRES   REMARKS
W PALM BEACH   CLOUDY    85  75  72 SE21G31   30.02R
FT LAUDER-EXEC RAIN      82  76  81 SE20G28   30.01R
FT LAUDERDALE  CLOUDY    81  76  84 S17G31    30.00R
POMPANO BEACH  CLOUDY    84  76  76 S20G31    30.01R
PEMBROKE PINES CLOUDY    83  76  79 SE15G24   30.02R
OPA LOCKA      CLOUDY    80  79  96 SE17G25   30.02R
MIAMI          CLOUDY    83  76  79 SE16G29   30.01R
WEST KENDALL   CLOUDY    83  77  82 SE14G20     N/A
HOMESTEAD      CLOUDY    84  75  74 SE17G25   30.00R

STATION/POSITION SKY/WX   TEMP    WIND        PRES    WAVE   SWELL
                          AIR SEA DIR/SP/G            HT/PER HT/PER
                          (F)     (DEG/KT/KT) (MB)    (FT/S) (FT/S)
PORT EVERGLADES            83     150/ 18/ 24 1016.4R
SETTLEMENT POINT           79     150/ 21/ 26 1018.6R

$$




USA.gov is the U.S. government's official web portal to all federal, state and local government web resources and services.